• In Uzbekistan
  • List of Countries
  • For 7 days
  • Water Temperature
  • Satellite Maps
  • Weather Map
  • Weather Widgets
  • user-avatar
    Login

    Hourly Weather Iosser

    Today, 20 June, Wednesday

    Time Temperature Precipitation Wind Pressure Humidity
    00:00 +14°C° 0 mm 2 mps 739 mmHg 59%
    01:00 +14°C° 0 mm 2 mps 738 mmHg 60%
    02:00 +14°C° 0 mm 2 mps 737 mmHg 60%
    03:00 +14°C° 0 mm 2 mps 737 mmHg 61%
    04:00 +14°C° 0 mm 3 mps 736 mmHg 56%
    05:00 +17°C° 0 mm 3 mps 736 mmHg 52%
    06:00 +18°C° 0 mm 3 mps 735 mmHg 48%
    07:00 +20°C° 0.1 mm 3 mps 734 mmHg 47%
    08:00 +21°C° 0.1 mm 3 mps 733 mmHg 46%
    09:00 +22°C° 0.1 mm 4 mps 733 mmHg 45%
    10:00 +22°C° 0.3 mm 4 mps 732 mmHg 49%
    11:00 +22°C° 0.3 mm 3 mps 731 mmHg 54%
    12:00 +22°C° 0.3 mm 3 mps 731 mmHg 58%
    13:00 +21°C° 0.8 mm 3 mps 730 mmHg 68%
    14:00 +19°C° 0.8 mm 2 mps 729 mmHg 78%
    15:00 +18°C° 0.8 mm 2 mps 729 mmHg 88%
    16:00 +17°C° 0.8 mm 2 mps 729 mmHg 90%
    17:00 +18°C° 0.8 mm 1 mps 728 mmHg 91%
    18:00 +16°C° 0.8 mm 1 mps 728 mmHg 93%
    19:00 +16°C° 1.3 mm 2 mps 728 mmHg 94%
    20:00 +15°C° 1.3 mm 2 mps 727 mmHg 95%
    21:00 +14°C° 1.3 mm 2 mps 727 mmHg 96%
    22:00 +13°C° 1.7 mm 3 mps 727 mmHg 96%
    23:00 +12°C° 1.7 mm 3 mps 726 mmHg 96%

    Tomorrow, 21 June, Thursday

    Time Temperature Precipitation Wind Pressure Humidity
    00:00 +11°C° 1.7 mm 3 mps 726 mmHg 96%
    01:00 +11°C° 1.3 mm 3 mps 726 mmHg 96%
    02:00 +11°C° 1.3 mm 3 mps 726 mmHg 96%
    03:00 +11°C° 1.3 mm 3 mps 726 mmHg 96%
    04:00 +11°C° 0.3 mm 3 mps 726 mmHg 95%
    05:00 +13°C° 0.3 mm 2 mps 726 mmHg 95%
    06:00 +13°C° 0.3 mm 2 mps 726 mmHg 94%
    07:00 +15°C° 0 mm 2 mps 727 mmHg 88%
    08:00 +16°C° 0 mm 2 mps 727 mmHg 82%
    09:00 +18°C° 0 mm 2 mps 727 mmHg 75%
    10:00 +20°C° 0.1 mm 2 mps 728 mmHg 67%
    11:00 +23°C° 0.1 mm 2 mps 729 mmHg 59%
    12:00 +25°C° 0.1 mm 1 mps 729 mmHg 50%
    13:00 +25°C° 0.3 mm 2 mps 730 mmHg 50%
    14:00 +25°C° 0.3 mm 2 mps 730 mmHg 50%
    15:00 +25°C° 0.3 mm 2 mps 731 mmHg 50%
    16:00 +24°C° 0.1 mm 3 mps 731 mmHg 53%
    17:00 +22°C° 0.1 mm 3 mps 732 mmHg 55%
    18:00 +21°C° 0.1 mm 4 mps 733 mmHg 58%
    19:00 +19°C° 0 mm 4 mps 733 mmHg 64%
    20:00 +17°C° 0 mm 5 mps 734 mmHg 70%
    21:00 +16°C° 0 mm 5 mps 734 mmHg 76%
    22:00 +15°C° 0 mm 5 mps 735 mmHg 78%
    23:00 +14°C° 0 mm 5 mps 735 mmHg 80%

    Day after tomorrow, 22 June, Friday

    Time Temperature Precipitation Wind Pressure Humidity
    00:00 +14°C° 0 mm 4 mps 736 mmHg 81%
    01:00 +14°C° 0 mm 4 mps 736 mmHg 80%
    02:00 +14°C° 0 mm 4 mps 737 mmHg 78%
    03:00 +13°C° 0 mm 4 mps 737 mmHg 76%
    04:00 +14°C° 0 mm 5 mps 738 mmHg 72%
    05:00 +14°C° 0 mm 5 mps 738 mmHg 68%
    06:00 +15°C° 0 mm 5 mps 738 mmHg 64%
    07:00 +16°C° 0 mm 5 mps 739 mmHg 58%
    08:00 +17°C° 0 mm 5 mps 739 mmHg 52%
    09:00 +20°C° 0 mm 5 mps 739 mmHg 46%
    10:00 +21°C° 0 mm 5 mps 739 mmHg 42%
    11:00 +22°C° 0 mm 5 mps 740 mmHg 38%
    12:00 +23°C° 0 mm 5 mps 740 mmHg 34%
    13:00 +23°C° 0 mm 5 mps 740 mmHg 32%
    14:00 +23°C° 0 mm 5 mps 740 mmHg 31%
    15:00 +25°C° 0 mm 4 mps 740 mmHg 29%
    16:00 +23°C° 0 mm 4 mps 741 mmHg 31%
    17:00 +24°C° 0 mm 3 mps 741 mmHg 33%
    18:00 +24°C° 0 mm 3 mps 741 mmHg 34%
    19:00 +21°C° 0 mm 2 mps 741 mmHg 41%
    20:00 +19°C° 0 mm 2 mps 742 mmHg 47%
    21:00 +17°C° 0 mm 2 mps 742 mmHg 54%
    22:00 +16°C° 0 mm 1 mps 742 mmHg 55%
    23:00 +15°C° 0 mm 1 mps 742 mmHg 57%

    23 June, Saturday

    Time Temperature Precipitation Wind Pressure Humidity
    00:00 +14°C° 0 mm 1 mps 742 mmHg 58%
    01:00 +14°C° 0 mm 1 mps 742 mmHg 60%
    02:00 +14°C° 0 mm 1 mps 743 mmHg 61%
    03:00 +13°C° 0 mm 0 mps 743 mmHg 62%
    04:00 +15°C° 0 mm 1 mps 743 mmHg 57%
    05:00 +18°C° 0 mm 1 mps 743 mmHg 52%
    06:00 +20°C° 0 mm 1 mps 743 mmHg 48%
    07:00 +21°C° 0 mm 1 mps 743 mmHg 50%
    08:00 +22°C° 0 mm 1 mps 743 mmHg 52%
    09:00 +22°C° 0 mm 1 mps 743 mmHg 54%
    10:00 +23°C° 0.1 mm 1 mps 743 mmHg 55%
    11:00 +24°C° 0.1 mm 1 mps 743 mmHg 55%
    12:00 +25°C° 0.1 mm 1 mps 743 mmHg 55%
    13:00 +25°C° 0.3 mm 1 mps 744 mmHg 57%
    14:00 +26°C° 0.3 mm 1 mps 744 mmHg 58%
    15:00 +26°C° 0.3 mm 1 mps 744 mmHg 59%
    16:00 +25°C° 0.6 mm 2 mps 744 mmHg 65%
    17:00 +24°C° 0.6 mm 2 mps 744 mmHg 71%
    18:00 +23°C° 0.6 mm 2 mps 744 mmHg 77%
    19:00 +21°C° 0.7 mm 2 mps 744 mmHg 82%
    20:00 +20°C° 0.7 mm 2 mps 744 mmHg 87%
    21:00 +18°C° 0.7 mm 2 mps 744 mmHg 92%
    22:00 +18°C° 0 mm 2 mps 744 mmHg 94%
    23:00 +18°C° 0 mm 1 mps 744 mmHg 95%

    24 June, Sunday

    Time Temperature Precipitation Wind Pressure Humidity
    00:00 +16°C° 0 mm 1 mps 744 mmHg 96%
    01:00 +16°C° 0 mm 1 mps 745 mmHg 96%
    02:00 +16°C° 0 mm 1 mps 745 mmHg 96%
    03:00 +16°C° 0 mm 1 mps 745 mmHg 96%
    04:00 +19°C° 0 mm 1 mps 745 mmHg 92%
    05:00 +21°C° 0 mm 1 mps 745 mmHg 87%
    06:00 +21°C° 0 mm 0 mps 745 mmHg 82%
    07:00 +23°C° 0 mm 0 mps 745 mmHg 72%
    08:00 +25°C° 0 mm 0 mps 745 mmHg 62%
    09:00 +28°C° 0 mm 0 mps 745 mmHg 52%
    10:00 +31°C° 0 mm 1 mps 745 mmHg 48%
    11:00 +31°C° 0 mm 1 mps 745 mmHg 44%
    12:00 +32°C° 0 mm 1 mps 744 mmHg 40%
    13:00 +32°C° 0 mm 1 mps 744 mmHg 40%
    14:00 +32°C° 0 mm 1 mps 744 mmHg 40%
    15:00 +32°C° 0 mm 1 mps 744 mmHg 41%
    16:00 +31°C° 0 mm 1 mps 744 mmHg 44%
    17:00 +30°C° 0 mm 1 mps 744 mmHg 48%
    18:00 +29°C° 0 mm 1 mps 743 mmHg 52%
    19:00 +28°C° 0 mm 1 mps 743 mmHg 57%
    20:00 +26°C° 0 mm 1 mps 743 mmHg 61%
    21:00 +25°C° 0 mm 1 mps 743 mmHg 66%
    22:00 +24°C° 0 mm 1 mps 743 mmHg 69%
    23:00 +23°C° 0 mm 1 mps 743 mmHg 72%

    25 June, Monday

    Time Temperature Precipitation Wind Pressure Humidity
    00:00 +22°C° 0 mm 1 mps 743 mmHg 75%
    01:00 +21°C° 0 mm 2 mps 743 mmHg 77%
    02:00 +21°C° 0 mm 2 mps 743 mmHg 78%
    03:00 +20°C° 0 mm 2 mps 743 mmHg 79%
    04:00 +21°C° 0 mm 2 mps 744 mmHg 77%
    05:00 +21°C° 0 mm 3 mps 744 mmHg 75%
    06:00 +22°C° 0 mm 3 mps 744 mmHg 73%
    07:00 +22°C° 0 mm 3 mps 744 mmHg 68%
    08:00 +22°C° 0 mm 3 mps 744 mmHg 63%
    09:00 +22°C° 0 mm 3 mps 744 mmHg 58%
    10:00 +24°C° 0 mm 3 mps 745 mmHg 52%
    11:00 +25°C° 0 mm 3 mps 745 mmHg 45%
    12:00 +26°C° 0 mm 3 mps 745 mmHg 38%
    13:00 +26°C° 0 mm 3 mps 745 mmHg 37%
    14:00 +26°C° 0 mm 3 mps 745 mmHg 36%
    15:00 +26°C° 0 mm 3 mps 745 mmHg 35%
    16:00 +26°C° 0 mm 2 mps 745 mmHg 37%
    17:00 +26°C° 0 mm 2 mps 745 mmHg 39%
    18:00 +25°C° 0 mm 2 mps 745 mmHg 41%
    19:00 +23°C° 0 mm 2 mps 745 mmHg 47%
    20:00 +21°C° 0 mm 2 mps 745 mmHg 53%
    21:00 +19°C° 0 mm 2 mps 745 mmHg 60%
    22:00 +18°C° 0 mm 2 mps 745 mmHg 63%
    23:00 +18°C° 0 mm 1 mps 746 mmHg 66%
    Show more